Home > Weather > Elmshorn > Past weeks

Flag for Germany Past Weather in Elmshorn, Schleswig-Holstein, Germany — Yesterday and Last 2 Weeks

Now
61 °F

Scattered showers. Passing clouds.


Feels Like: 61 °F
Forecast: 58 / 67 °F
Wind: 7 mph from Southwest

Location: Hamburg-Fuhlsbuettel

Current Time: Jul 30, 2016 at 1:42:11 AM

Latest Report: Jul 30, 2016 at 1:20 AM


Visibility: N/A

Pressure: 29.83 "Hg

Humidity: 100%

Dew Point: 61 °F

Location of ElmshornLocation

Past Weather in Elmshorn — Graph

°F

Elmshorn Temperature Yesterday

Maximum temperature yesterday: 73 °F (at 2:50 PM)
Minimum temperature yesterday: 63 °F (at 2:50 AM)
Average temperature yesterday: 67 °F

High & Low Weather Summary for the Past Weeks

 TemperatureHumidityPressure
High84 °F (Jul 21, 3:50 PM)100% (Jul 16, 1:50 AM)30.21 "Hg (Jul 16, 1:50 AM)
Low52 °F (Jul 15, 11:50 PM)42% (Jul 23, 2:20 PM)29.80 "Hg (Jul 29, 3:50 PM)
Average68 °F77%30.04 "Hg
* Reported Jul 15 12:20 AM — Jul 30 12:20 AM, Elmshorn, Weather by CustomWeather, © 2016

Note: Actual official high and low records may vary slightly from our data, if they occured in-between our weather recording intervals... More about our weather records

Advertising

Elmshorn Weather History for the Previous 24 Hours

Scroll right to see more
 ConditionsComfort  
Time TempWeatherWind HumidityBarometerVisibility
12:20 AM
Sat, Jul 30
63 °FClear.6 mph94%29.83 "Hg10 mi
11:50 PM
Fri, Jul 29
63 °FClear.7 mph100%29.83 "Hg10 mi
11:20 PM63 °FClear.3 mph94%29.83 "Hg10 mi
10:50 PM63 °FPassing clouds.7 mph100%29.83 "HgN/A
10:20 PM63 °FSprinkles. Passing clouds.3 mph100%29.83 "HgN/A
9:50 PM63 °FRain showers. Partly sunny.5 mph94%29.83 "Hg4 mi
9:20 PM63 °FSprinkles. Partly sunny.5 mph100%29.83 "HgN/A
8:50 PM63 °FSprinkles. Broken clouds.6 mph94%29.80 "HgN/A
8:20 PM63 °FSprinkles. Broken clouds.9 mph94%29.80 "HgN/A
7:50 PM66 °FSprinkles. Broken clouds.16 mph78%29.80 "HgN/A
7:20 PM72 °FScattered showers. Broken clouds.12 mph65%29.80 "HgN/A
6:50 PM72 °FPartly sunny.10 mph65%29.80 "HgN/A
6:20 PM72 °FPartly sunny.10 mph65%29.80 "HgN/A
5:50 PM72 °FPartly sunny.9 mph65%29.80 "HgN/A
5:20 PM73 °FPartly sunny.10 mph61%29.80 "HgN/A
4:50 PM73 °FBroken clouds.9 mph65%29.80 "HgN/A
4:20 PM72 °FPartly sunny.10 mph65%29.80 "HgN/A
3:50 PM72 °FPartly sunny.14 mph65%29.80 "HgN/A
3:20 PM72 °FPartly sunny.12 mph65%29.83 "HgN/A
2:50 PM73 °FPartly sunny.12 mph65%29.83 "HgN/A
2:20 PM72 °FPartly sunny.10 mph65%29.83 "HgN/A
1:50 PM70 °FPartly sunny.12 mph69%29.83 "HgN/A
1:20 PM70 °FScattered clouds.16 mph73%29.83 "HgN/A
12:50 PM70 °FScattered clouds.17 mph64%29.83 "HgN/A
12:20 PM70 °FBroken clouds.14 mph64%29.83 "HgN/A
11:50 AM68 °FScattered clouds.8 mph73%29.83 "HgN/A
11:20 AM68 °FScattered clouds.12 mph78%29.83 "HgN/A
10:50 AM68 °FScattered clouds.10 mph78%29.83 "HgN/A
10:20 AM68 °FScattered clouds.10 mph78%29.83 "HgN/A
9:50 AM66 °FScattered clouds.9 mph83%29.83 "HgN/A
9:20 AM66 °FScattered clouds.N/A88%29.83 "Hg6 mi
8:50 AM64 °FBroken clouds.10 mph94%29.83 "Hg5 mi
8:20 AM64 °FPartly sunny.8 mph94%29.83 "Hg4 mi
7:50 AM64 °FBroken clouds.7 mph94%29.83 "Hg4 mi
7:20 AM64 °FBroken clouds.7 mph94%29.83 "Hg4 mi
6:50 AM64 °FBroken clouds.8 mph94%29.83 "Hg4 mi
6:20 AM64 °FFog.8 mph94%29.83 "Hg3 mi
5:50 AM64 °FFog.8 mph94%29.83 "Hg3 mi
5:20 AM64 °FFog.9 mph94%29.83 "Hg3 mi
4:50 AM64 °FFog.7 mph94%29.83 "Hg3 mi
4:20 AM64 °FPartly cloudy.6 mph94%29.83 "Hg5 mi
3:50 AM64 °FPartly cloudy.3 mph94%29.83 "HgN/A
3:20 AM63 °FPartly cloudy.1 mph100%29.83 "HgN/A
2:50 AM63 °FPartly cloudy.2 mph100%29.83 "HgN/A
2:20 AM64 °FPartly cloudy.2 mph94%29.86 "HgN/A
1:50 AM64 °FPassing clouds.2 mph94%29.86 "HgN/A
1:20 AM64 °FThundershowers. Passing clouds.3 mph94%29.86 "HgN/A
Weather by CustomWeather, © 2016

See weather overviewHow to use our weather pages